User: anonymous   Login
Location: Observatoire de Paris
(48.8363°N, 2.3365°E)
Time: 13:29:28
(UTC+01:00)
Language:

CUTE-I - Orbit

View from above orbital plane
View from above orbital plane
View from above satellite
View from above satellite

Ground track
Ground track

The orbit data is extracted from the following two-line orbital elements,

1 27844U 03031E   21266.89208204  .00000066  00000-0  49191-4 0  9992
2 27844  98.6821 273.6166 0010420 148.2683 211.9124 14.22333956945973
Epoch (UTC): 23 September 2021 21:24:35
Eccentricity: 0.0010420
inclination: 98.6821°
perigee height: 810 km
apogee height: 825 km
right ascension of ascending node: 273.6166°
argument of perigee: 148.2683°
revolutions per day: 14.22333956
mean anomaly at epoch: 211.9124°
orbit number at epoch: 94597

The dashed part of the orbit path shows where the satellite is in the earth's shadow,  

DLR